Probability
6 7 8 9 9 6 5 5 3 1 1 2 2 1 0 0 0 0 0 0 0 0 0 0 1 1 2 4 6 7 6 6 6 5 5 5 6 6 5 4 3 2 1
5 6 7 7 6 5 4 3 2 1 0 1 1 0 0 0 0 0 0 0 0 0 0 0 0 1 2 3 5 7 7 8 7 6 5 5 6 6 5 4 2 1 2
3 4 4 3 2 2 2 1 1 0 0 0 0 0 0 0 0 0 0 0 0 0 0 0 0 0 1 3 4 7 8 9 9 8 6 6 6 5 4 3 2 2 1
2 1 1 0 0 1 1 0 0 0 0 0 0 0 0 0 0 0 0 0 0 0 0 0 0 0 1 1 3 6 8 9 10 8 6 5 5 3 2 1 2 2 2
1 0 0 0 0 0 0 0 0 0 0 0 0 0 0 0 0 0 0 0 0 0 0 0 0 0 0 0 2 5 7 8 8 7 4 3 3 2 1 0 1 2 2
0 0 0 0 0 0 0 0 0 0 0 0 0 0 0 0 0 0 0 0 0 0 0 0 0 0 0 0 1 2 4 5 5 4 2 2 2 2 2 1 1 2 3
0 0 0 0 0 0 0 0 0 1 1 1 1 0 0 0 0 0 0 0 0 0 0 0 1 1 1 2 2 2 2 3 4 4 2 2 3 3 3 3 2 3 4
0 0 0 0 0 0 0 0 1 2 3 3 2 1 0 0 0 0 0 0 0 0 1 2 2 3 3 3 3 3 3 2 3 3 3 3 3 4 4 2 2 3 4
0 0 0 0 0 0 0 0 1 2 3 3 3 1 0 0 0 0 0 0 0 1 3 3 3 3 2 1 2 3 3 3 2 1 2 2 3 3 2 1 1 2 3
0 0 0 0 0 0 0 0 0 1 1 2 2 1 0 0 0 0 0 0 0 0 2 2 2 1 1 0 1 2 3 3 1 1 1 1 2 1 0 0 0 1 2
0 0 0 0 0 0 0 0 0 0 0 0 0 0 0 0 0 0 0 0 0 0 0 0 0 0 0 0 1 2 3 2 2 2 2 2 2 2 1 0 0 1 2
1 1 1 1 1 0 0 0 0 0 0 0 0 0 0 0 0 0 0 0 0 0 0 0 0 0 0 0 1 1 1 2 3 3 3 3 3 2 1 0 0 2 3
3 3 2 2 2 1 1 0 0 0 1 0 0 0 0 0 0 0 0 0 0 0 0 0 0 0 0 0 0 0 1 2 3 3 3 3 2 1 0 0 0 1 1
5 4 3 3 3 3 2 1 1 1 1 0 0 1 1 0 0 1 0 0 0 0 0 0 0 0 0 0 0 0 1 2 2 2 2 1 1 0 0 0 0 0 0
5 4 3 3 3 3 3 3 3 2 1 0 0 1 1 0 0 0 0 0 0 0 0 0 0 0 0 0 1 1 0 1 1 1 1 0 0 0 0 0 0 0 0
4 3 3 3 3 3 3 3 2 1 0 0 0 1 1 0 0 0 0 0 0 0 0 0 0 0 0 1 2 2 1 0 0 0 0 0 0 0 0 0 0 0 0
3 3 3 3 3 3 3 3 2 1 0 0 0 0 0 0 0 0 0 0 0 0 0 0 0 0 0 1 2 2 2 1 0 0 0 0 0 0 0 0 0 0 0
2 2 3 3 3 3 3 3 3 2 0 0 0 0 0 0 0 0 0 0 0 0 0 0 0 0 0 0 1 1 1 1 1 1 0 0 0 0 0 0 0 0 0
1 1 1 2 3 3 3 3 2 1 0 0 0 0 0 0 0 0 0 0 0 0 0 0 0 0 0 0 0 0 1 1 2 2 1 0 0 0 0 0 0 0 0
0 0 1 1 2 2 2 1 1 0 0 0 0 0 0 0 0 0 0 0 0 1 1 2 1 0 0 0 0 0 1 2 3 2 1 0 0 0 0 0 0 0 0
0 0 0 0 0 1 1 0 0 0 0 0 0 0 0 0 0 0 0 0 0 1 2 3 2 1 0 0 0 0 1 2 2 1 0 0 0 0 0 0 0 0 0
0 0 0 0 0 0 0 0 0 0 0 0 0 0 0 0 0 1 1 0 0 1 2 3 3 2 1 0 0 1 1 1 1 0 0 0 0 0 0 0 0 0 0
0 0 0 0 0 0 0 0 0 0 0 0 0 0 0 0 0 1 1 0 0 0 1 1 2 2 1 0 0 1 1 0 0 0 0 0 0 0 0 0 0 0 0
0 0 0 0 0 0 0 0 0 0 0 0 0 0 0 0 0 1 1 0 0 0 0 0 1 1 0 0 0 0 0 0 0 0 0 0 0 0 0 0 0 0 0
0 0 0 0 0 0 0 0 0 0 0 0 0 0 0 0 0 0 0 0 0 0 0 0 0 0 0 0 0 0 0 0 0 0 0 0 0 0 0 0 0 0 0
0 0 0 0 0 0 0 0 0 0 0 0 0 0 0 0 0 0 0 0 0 0 0 0 0 0 0 0 0 0 0 0 0 0 0 0 0 0 0 0 0 0 0
Wind_Speed
1 1 1 2 2 2 2 2 2 1 1 1 1 2 2 2 2 2 2 2 2 2 2 2 2 3 3 3 3 3 3 4 4 3 3 1 2 4 4 4 4 4 2
1 1 2 2 2 2 2 2 2 2 1 2 2 2 2 2 2 3 2 2 2 2 2 2 2 2 3 3 3 3 3 3 5 5 4 3 3 4 4 5 5 4 4
1 1 1 2 2 1 2 2 2 2 2 2 2 2 2 2 2 2 2 2 2 2 2 2 3 3 3 2 3 3 3 3 3 4 4 3 3 3 4 5 5 4 6
0 1 1 1 1 2 2 2 2 2 2 2 2 1 2 2 2 2 2 2 2 2 2 3 3 3 3 3 4 4 4 4 4 4 4 3 3 3 4 4 4 3 4
0 1 1 1 2 2 1 1 1 2 2 2 1 1 1 2 1 1 2 2 2 3 3 3 3 2 3 4 4 4 4 4 4 3 3 4 3 3 4 4 4 5 4
1 1 1 1 1 1 1 1 1 1 1 1 1 1 1 1 3 1 3 2 2 3 3 3 3 4 4 6 5 4 4 5 5 4 4 4 4 4 4 5 5 5 5
2 2 2 2 1 1 2 2 1 1 1 1 1 1 1 1 3 2 3 4 3 3 3 4 4 2 4 4 4 7 7 7 7 6 6 6 6 5 5 6 5 6 6
2 2 2 2 2 2 1 1 1 1 1 1 1 1 1 1 3 3 4 5 3 4 4 4 4 4 3 4 4 4 4 3 5 6 5 6 5 5 5 6 6 6 7
2 2 2 2 2 1 1 1 1 1 1 1 1 1 1 1 2 3 4 3 3 4 4 4 4 4 0 2 4 4 4 3 3 4 4 5 5 6 6 6 5 5 5
3 2 2 2 2 2 1 1 1 1 1 2 1 1 2 2 1 3 4 4 3 3 3 3 3 3 1 2 4 4 5 4 4 3 4 6 6 6 8 6 5 5 5
2 2 2 2 2 2 2 2 2 2 1 1 1 2 2 2 2 3 4 4 4 4 3 3 1 3 3 4 6 5 4 5 5 5 4 4 4 3 4 4 4 5 5
2 2 2 2 1 1 2 2 2 2 2 2 2 2 2 2 2 3 4 5 5 4 4 3 1 2 3 5 4 3 5 6 5 4 4 3 3 3 2 3 4 5 5
3 3 2 2 1 2 2 2 3 3 3 2 2 2 1 1 2 4 5 6 5 4 3 2 2 3 4 4 5 6 6 5 4 4 4 3 3 2 3 2 3 4 5
3 3 3 2 2 2 2 2 2 3 3 3 3 2 2 1 2 1 2 3 5 4 3 3 5 6 5 3 3 5 4 3 4 4 4 3 3 3 3 2 2 3 3
4 3 3 3 2 2 2 2 3 3 3 4 4 4 3 3 3 4 3 3 3 2 2 3 2 2 2 2 2 3 3 2 3 3 4 3 3 3 3 2 2 3 3
4 4 3 3 2 2 2 2 0 2 0 1 3 4 3 3 2 2 2 3 3 3 3 3 3 3 3 3 3 2 2 3 3 4 3 3 3 3 3 3 3 3 3
4 3 2 2 2 2 2 2 2 2 3 4 4 4 5 4 3 3 3 3 3 3 3 3 3 3 3 3 3 3 3 2 3 4 3 3 3 3 3 3 3 3 4
4 3 3 3 3 3 3 3 3 3 2 2 4 6 6 6 5 4 4 3 3 4 3 3 3 3 3 2 3 3 3 3 3 3 3 3 3 3 3 3 3 4 4
4 3 3 3 3 3 4 4 3 3 3 3 2 3 5 6 6 5 5 4 4 3 3 3 3 3 3 2 2 2 3 3 3 3 3 3 3 3 3 3 3 2 4
4 3 4 4 4 4 4 4 3 3 3 3 3 2 2 3 3 3 4 4 3 3 3 3 3 3 2 2 2 2 3 2 2 3 3 3 3 4 4 4 4 3 3
5 5 6 5 4 4 3 3 3 3 3 3 3 2 3 4 4 3 3 3 3 3 3 3 3 3 2 3 2 3 3 3 3 3 3 3 3 3 4 4 4 4 3
4 4 5 4 4 3 3 3 3 3 4 4 3 1 3 4 4 3 2 2 3 3 3 3 4 3 2 3 3 3 3 3 2 2 3 3 3 3 4 4 3 3 3
5 5 4 4 4 4 4 4 4 4 4 4 3 3 2 3 3 3 3 2 3 3 3 3 4 3 2 2 2 3 2 3 3 2 3 4 4 4 3 3 4 4 4
6 5 5 4 4 4 4 4 4 4 4 4 4 4 3 3 3 3 3 3 3 3 3 3 3 3 3 3 2 1 2 3 4 3 3 4 4 4 4 3 4 4 4
6 5 5 4 4 4 4 4 4 4 4 4 4 4 4 3 3 3 3 3 3 3 3 3 2 2 2 3 3 1 2 1 3 4 3 3 4 4 4 4 4 4 4
6 6 5 4 4 4 4 4 4 4 4 4 4 4 4 3 3 3 3 3 3 3 3 2 2 2 2 3 2 0 1 1 2 4 5 4 4 4 4 4 5 4 4
Wind_Direction
219 229 235 214 196 193 190 181 179 174 178 176 163 171 178 175 175 181 204 187 192 192 210 208 228 270 271 269 270 269 267 274 273 287 293 284 280 290 299 290 277 268 229
226 230 217 197 186 181 166 157 157 150 149 148 146 151 163 162 174 183 191 183 195 204 215 230 246 245 256 268 279 280 282 284 275 285 288 278 265 264 277 277 276 274 276
212 203 179 180 172 162 157 155 150 140 142 136 143 154 165 167 171 178 182 192 204 218 231 245 251 250 253 261 267 273 275 272 270 272 279 289 279 283 274 266 273 277 273
199 170 142 152 152 150 159 160 161 151 142 137 141 154 170 183 180 181 187 202 216 228 239 248 252 257 263 269 264 270 278 279 269 268 277 282 279 289 282 284 283 276 283
174 163 141 144 154 163 163 152 156 161 159 159 162 162 181 189 182 196 215 213 219 228 235 243 241 265 297 283 288 293 287 279 280 279 281 288 300 305 294 292 293 294 287
183 175 175 177 166 167 163 154 139 148 171 175 167 186 201 180 102 131 271 241 232 236 242 247 232 221 233 229 237 254 274 275 285 284 283 296 297 297 303 295 296 295 295
177 183 175 181 174 164 161 154 152 160 172 184 195 211 211 128 140 196 250 255 241 246 253 260 268 266 255 264 223 216 227 232 246 271 283 293 293 299 299 291 294 294 295
174 176 174 179 171 158 158 163 168 181 203 218 233 222 231 178 170 208 243 241 249 248 249 255 265 274 282 292 280 269 259 240 234 241 268 280 291 299 289 282 280 275 271
182 185 182 188 182 184 186 184 185 196 207 219 217 231 237 229 175 211 247 244 246 252 254 254 259 265 299 285 270 272 275 270 231 227 249 262 274 272 279 284 282 276 282
191 196 188 195 200 209 209 210 196 207 228 242 239 253 254 263 168 212 245 258 264 268 252 241 221 247 270 248 266 273 280 296 303 275 241 237 242 238 233 254 276 283 286
190 184 177 178 187 203 207 213 211 218 233 261 274 257 245 254 193 206 243 270 280 279 279 269 198 160 217 242 261 271 283 290 284 276 267 262 255 250 247 246 262 275 286
177 174 169 173 197 177 195 213 219 230 228 236 240 253 235 213 225 199 214 246 285 287 289 295 351 150 226 242 248 257 269 270 273 278 278 277 280 286 286 284 279 279 282
173 169 166 171 186 201 210 220 230 235 252 261 263 273 288 268 177 189 206 222 239 261 290 327 296 235 236 229 222 241 253 258 273 278 282 284 288 296 284 267 262 261 260
176 180 185 190 204 205 232 246 262 268 270 275 286 297 310 314 320 288 215 206 212 230 258 234 213 226 239 259 244 236 253 273 280 279 283 287 288 275 265 278 284 282 283
183 192 204 207 206 221 241 293 288 300 316 301 308 311 313 318 9 9 328 318 314 325 295 265 261 248 245 248 257 266 267 265 269 276 277 281 282 284 288 292 292 291 296
200 205 213 218 218 226 222 221 207 264 278 258 283 296 318 327 325 334 314 295 294 292 280 278 282 283 286 292 291 281 273 281 288 287 285 287 290 293 294 290 285 289 297
215 221 228 235 232 235 247 261 262 222 220 235 241 247 255 277 290 287 271 256 254 240 255 274 281 289 297 299 296 295 297 301 293 290 293 295 296 297 297 296 297 295 297
215 208 227 235 245 252 256 263 266 274 269 248 213 217 226 233 242 248 238 233 236 226 257 272 280 284 285 287 287 290 295 296 288 288 291 296 298 300 298 297 298 305 305
225 227 225 237 238 244 250 255 260 264 277 285 272 194 207 208 212 223 216 251 280 280 277 281 284 287 295 293 288 287 284 283 292 291 291 295 295 296 298 298 299 302 291
213 234 252 247 240 239 244 249 253 257 264 273 278 280 212 218 230 210 212 245 271 285 287 289 290 292 295 292 285 283 280 277 270 267 279 290 296 296 293 289 293 293 291
216 194 202 231 243 248 254 259 261 264 269 274 280 325 324 282 280 282 274 261 265 274 281 288 282 270 267 272 280 283 284 281 272 273 276 278 283 287 285 282 284 289 298
231 224 214 223 234 244 254 261 264 263 264 271 279 224 190 265 282 285 279 277 277 280 281 280 279 280 286 285 282 278 280 282 283 281 285 285 280 280 284 288 290 291 292
232 233 232 232 236 232 239 250 256 258 265 270 276 284 263 270 279 283 282 282 286 289 286 281 279 281 287 286 292 294 298 300 301 301 289 287 292 294 292 294 297 297 303
230 230 231 230 232 241 247 253 257 260 265 274 282 287 288 284 282 283 281 280 277 277 276 272 278 295 293 281 275 287 332 327 311 293 292 294 293 297 299 299 299 303 297
235 233 232 232 236 241 248 256 263 266 264 265 269 276 280 279 280 283 282 279 276 269 269 269 269 271 276 272 280 322 38 346 309 306 283 282 287 293 297 301 301 299 296
237 236 236 237 240 243 247 251 256 262 264 263 262 263 269 271 275 278 280 287 284 272 261 254 256 260 266 259 265 279 165 245 270 284 283 274 279 288 294 292 295 292 296